sat.trackr.live / text

‹ back to catalog

STARLINK-3298

NORAD 50165 · 2021-125K

PAYLOAD ACTIVE UNKNOWN

§ Identity

Operator
Country
US
Launch date
2021-12-18
Launch site
AFWTR
Launch vehicle
Mass (kg)
RCS (m²)

Purposes: comms

External: N2YO · Heavens-Above · Gunter

§ Orbital elements

Epoch: 2026-05-24T14:26:43.002240Z

Period
95.44 min
Inclination
53.2155°
Eccentricity
0.0001265
Mean motion
15.08837804 rev/d
Perigee alt
538.9 km
Apogee alt
540.6 km
Semi-major
6,917.9 km
B*
3.4364e-5
RAAN
278.3360°
Arg perigee
91.4223°
Mean anomaly
268.6914°
Rev number
24,796

§ Raw data

STARLINK-32981 50165U 21125K   26144.60188660  .00000259  00000+0  34364-4 0  99992 50165  53.2155 278.3360 0001265  91.4223 268.6914 15.08837804247962

JSON: /api/v1/satellites/50165 · /tle

For live sub-satellite position, see the globe view (requires WebGL).

§ Visibility from observer

Set your observer location to see the next 7 days of passes ≥ 10°. The values pass through the URL so the page stays shareable.

No JS? Fill the form by hand. The geolocation button needs JavaScript.